Location: Unspecified
(48.8656°N, 0.0000°E)
Time: 14:48:12
(UTC+00:00)

SR - Pass Details

Date: 01 July 2019
Orbit: 581 x 875 km, 66.7° (Epoch: 16 July)

Event Time Altitude Azimuth Distance (km) Brightness Sun altitude
Rises 09:23:20 0° 326° (NW) 3,010 ? 49.3°
Reaches altitude 10° 09:25:36 10° 330° (NNW) 2,136 ? 49.7°
Maximum altitude 09:30:25 60° 51° (NE) 834 ? 50.4°
Drops below altitude 10° 09:35:39 10° 131° (SE) 2,319 ? 51.1°
Sets 09:38:12 0° 135° (SE) 3,290 ? 51.5°
